Home   Weather   Grande Prairie   Past weeks

Flag for Canada Past Weather in Grande Prairie, Alberta, Canada — Yesterday and Last 2 Weeks

Now
14 °F

Light snow. Ice fog.


Feels Like: 8 °F
Forecast: 7 / 18 °F
Wind: 3 mph from North

Location: Grande Prairie

Current Time: Jan 23, 2017 at 12:09:43 pm

Latest Report: Jan 23, 2017 at 11:00 am


Visibility: 2 mi

Pressure: 30.03 "Hg (27.58 "Hg at 657m altitude)

Humidity: 85%

Dew Point: 10 °F

Location of Grande PrairieLocation

Past Weather in Grande Prairie — Graph

°F

Grande Prairie Temperature Yesterday

Maximum temperature yesterday: 12 °F (at 9:00 pm)
Minimum temperature yesterday: 7 °F (at 4:00 am)
Average temperature yesterday: 9 °F

High & Low Weather Summary for the Past Weeks

 TemperatureHumidityPressure
High46 °F (Jan 16, 2:00 pm)100% (Jan 18, 8:00 am)30.43 "Hg (Jan 18, 8:00 am)
Low-17 °F (Jan 12, 7:00 am)53% (Jan 15, 3:00 pm)29.11 "Hg (Jan 18, 3:00 pm)
Average16 °F78%29.79 "Hg
* Reported Jan 8 10:00 am — Jan 23 10:57 am, Grande Prairie, Weather by CustomWeather, © 2017

Note: Actual official high and low records may vary slightly from our data, if they occured in-between our weather recording intervals... More about our weather records

Advertising

Grande Prairie Weather History for the Previous 24 Hours

Scroll right to see more
 ConditionsComfort  
Time TempWeatherWind HumidityBarometerVisibility
10:57 am
Mon, Jan 23
14 °FLight snow. Ice fog.3 mph85%30.03 "Hg2 mi
10:00 am14 °FLight snow. Ice fog.No wind85%30.03 "Hg1 mi
9:00 am12 °FLight snow. Ice fog.2 mph92%30.03 "Hg2 mi
8:44 am12 °FLight snow. Ice fog.2 mph92%30.03 "Hg2 mi
8:00 am12 °FLight snow. Ice fog.No wind92%30.02 "Hg2 mi
7:00 am12 °FLight snow. Ice fog.2 mph92%30.02 "Hg2 mi
6:00 am12 °FLight snow. Ice fog.2 mph92%30.02 "Hg2 mi
5:00 am12 °FLight snow. Ice fog.3 mph92%30.02 "Hg2 mi
4:00 am12 °FLight snow. Ice fog.No wind92%30.02 "Hg2 mi
3:00 am12 °FLight snow. Ice fog.3 mph92%30.02 "Hg2 mi
2:00 am12 °FLight snow. Ice fog.5 mph92%30.02 "Hg2 mi
1:00 am12 °FLight snow. Ice fog.2 mph85%30.02 "Hg2 mi
12:00 am12 °FLight snow. Ice fog.2 mph85%30.03 "Hg2 mi
11:00 pm
Sun, Jan 22
12 °FLight snow. Ice fog.5 mph85%30.03 "Hg2 mi
10:00 pm12 °FLight snow. Ice fog.3 mph85%30.03 "Hg2 mi
9:00 pm12 °FLight snow. Ice fog.No wind85%30.04 "Hg2 mi
8:00 pm10 °FLight snow. Low clouds.2 mph92%30.04 "Hg5 mi
7:48 pm10 °FLight snow. Low clouds.3 mph92%30.04 "Hg6 mi
7:00 pm10 °FLow clouds.5 mph85%30.05 "Hg10 mi
6:00 pm10 °FOvercast.7 mph85%30.05 "Hg10 mi
5:00 pm10 °FLow clouds.8 mph85%30.06 "Hg10 mi
4:00 pm10 °FLow clouds.8 mph85%30.05 "Hg10 mi
3:00 pm10 °FOvercast.8 mph85%30.06 "Hg10 mi
2:00 pm10 °FOvercast.7 mph85%30.07 "Hg10 mi
1:00 pm9 °FLight snow. More clouds than sun.7 mph92%30.08 "Hg10 mi
12:52 pm9 °FLight snow. More clouds than sun.7 mph85%30.08 "Hg10 mi
12:00 pm9 °FLight snow. Low clouds.10 mph85%30.10 "Hg3 mi
Weather by CustomWeather, © 2017

See weather overviewHow to use our weather pages